Location: Kershaw
(34.5481°N, 80.5823°W)
Time: 13:45:24
(UTC+00:00)

A-11 Canister half - Pass Details

Date: 11 October 2022
Orbit: 1524 x 1685 km, 47.3° (Epoch: 25 November)

Event Time Altitude Azimuth Distance (km) Brightness Sun altitude
Rises 00:55:18 0° 305° (NW) 4,696 12.6 -25.7°
Reaches altitude 10° 00:58:19 10° 304° (NW) 3,725 11.9 -26.3°
Maximum altitude 01:07:45 80° 220° (SW) 1,598 9.0 -28.2°
Enters shadow 01:11:15 46° 140° (SE) 2,043 9.2 -28.9°
